Regional Weather Roundup
Issued by NWS Goodland, KS

Home | Current Version | Previous Version | Text Only | Print | Product List | Glossary Off
Versions: 1 2 3 4 5 6 7 8 9 10 11 12 13 14 15 16 17 18 19 20 21 22 23 24 25 26 27 28 29 30 31 32 33 34 35 36 37 38 39 40 41 42 43 44 45 46 47 48 49 50

000
ASUS43 KGLD 022308
RWRGLD

GOODLAND FORECAST AREA HOURLY WEATHER ROUNDUP
NATIONAL WEATHER SERVICE GOODLAND KS
500 PM MDT SUN AUG 02 2015

...OFFICIAL OBSERVATIONS...

CITY           SKY/WX    TMP DP  RH WIND       PRES   REMARKS
GOODLAND KS    MOSUNNY   95  47  19 SE8       29.95F
HILL CITY KS   SUNNY     96  59  29 S5        29.87F
IMPERIAL NEB   CLOUDY    94  54  25 E9        29.92S
MCCOOK NEB     PTSUNNY   86  54  33 NE28G39   29.90R
AKRON CO       MOSUNNY   90  45  21 SE10      30.02F
BURLINGTON CO  MOSUNNY   90  49  24 S12       30.00F
LIMON CO       MOSUNNY   88  40  18 SE13G20   30.08S
$$

...UNOFFICIAL OBSERVATIONS...

CITY           SKY/WX    TMP DP  RH WIND       PRES   REMARKS
COLBY KS       SUNNY     93  59  31 SE6       29.93F
NORTON KS      SUNNY     93  52  24 E6        29.87S
SHARON SPRINGS   N/A     93  60  33 CALM        N/A
KIT CARSON CO    N/A     92  49  22 MISG        N/A
$$



USA.gov is the U.S. government's official web portal to all federal, state and local government web resources and services.